• en Belgique
  • Liste des pays
  • À 7 jours
  • Température de l'eau
  • Carte satellitaire
  • Carte météo
  • Widgets météo
  • user-avatar
    Se connecter

    Météo par heure à Quito

    Ce jour, 17 Décembre, Dimanche

    Heure Température Précipitation Vent Pression Humidité
    00:00 +16°C° 0,6 mm 0 m/s 622 mmHg 94%
    01:00 +16°C° 0 mm 0 m/s 622 mmHg 95%
    02:00 +16°C° 0,7 mm 0 m/s 622 mmHg 95%
    03:00 +16°C° 0,7 mm 0 m/s 622 mmHg 95%
    04:00 +16°C° 0,7 mm 0 m/s 622 mmHg 95%
    05:00 +18°C° 0,4 mm 1 m/s 622 mmHg 95%
    06:00 +19°C° 0,4 mm 1 m/s 622 mmHg 94%
    07:00 +19°C° 0,4 mm 1 m/s 623 mmHg 94%
    08:00 +20°C° 0,5 mm 1 m/s 623 mmHg 90%
    09:00 +20°C° 0,5 mm 2 m/s 623 mmHg 86%
    10:00 +23°C° 0,5 mm 2 m/s 624 mmHg 82%
    11:00 +23°C° 1,2 mm 2 m/s 623 mmHg 81%
    12:00 +24°C° 1,2 mm 2 m/s 623 mmHg 80%
    13:00 +24°C° 1,2 mm 2 m/s 622 mmHg 79%
    14:00 +24°C° 1,6 mm 2 m/s 622 mmHg 81%
    15:00 +23°C° 1,6 mm 2 m/s 621 mmHg 84%
    16:00 +23°C° 1,6 mm 2 m/s 621 mmHg 86%
    17:00 +21°C° 1,1 mm 2 m/s 621 mmHg 89%
    18:00 +20°C° 1,1 mm 2 m/s 621 mmHg 92%
    19:00 +19°C° 1,1 mm 1 m/s 621 mmHg 95%
    20:00 +19°C° 1,7 mm 1 m/s 621 mmHg 95%
    21:00 +18°C° 1,7 mm 2 m/s 622 mmHg 94%
    22:00 +18°C° 1,7 mm 2 m/s 622 mmHg 93%
    23:00 +19°C° 1 mm 1 m/s 622 mmHg 94%

    Demain, 18 Décembre, Lundi

    Heure Température Précipitation Vent Pression Humidité
    00:00 +18°C° 1 mm 1 m/s 622 mmHg 95%
    01:00 +18°C° 1 mm 1 m/s 622 mmHg 95%
    02:00 +18°C° 0,4 mm 1 m/s 621 mmHg 96%
    03:00 +18°C° 0,4 mm 1 m/s 621 mmHg 96%
    04:00 +18°C° 0,4 mm 1 m/s 621 mmHg 96%
    05:00 +18°C° 0,3 mm 1 m/s 621 mmHg 96%
    06:00 +18°C° 0,3 mm 1 m/s 622 mmHg 96%
    07:00 +18°C° 0,3 mm 1 m/s 622 mmHg 95%
    08:00 +19°C° 0,6 mm 1 m/s 622 mmHg 94%
    09:00 +20°C° 0,6 mm 1 m/s 623 mmHg 92%
    10:00 +19°C° 0,6 mm 2 m/s 623 mmHg 90%
    11:00 +20°C° 0,6 mm 2 m/s 623 mmHg 89%
    12:00 +20°C° 0,6 mm 2 m/s 622 mmHg 88%
    13:00 +20°C° 0,6 mm 2 m/s 622 mmHg 87%
    14:00 +20°C° 1 mm 2 m/s 621 mmHg 88%
    15:00 +19°C° 1 mm 2 m/s 621 mmHg 90%
    16:00 +19°C° 1 mm 2 m/s 620 mmHg 92%
    17:00 +18°C° 0,6 mm 2 m/s 621 mmHg 93%
    18:00 +19°C° 0,6 mm 1 m/s 621 mmHg 95%
    19:00 +18°C° 0,6 mm 1 m/s 621 mmHg 96%
    20:00 +18°C° 0 mm 1 m/s 621 mmHg 96%
    21:00 +18°C° 0 mm 1 m/s 621 mmHg 97%
    22:00 +16°C° 0 mm 1 m/s 622 mmHg 97%
    23:00 +16°C° 0 mm 1 m/s 621 mmHg 97%

    Après-demain, 19 Décembre, Mardi

    Heure Température Précipitation Vent Pression Humidité
    00:00 +16°C° 0 mm 1 m/s 621 mmHg 97%
    01:00 +15°C° 0 mm 0 m/s 620 mmHg 97%
    02:00 +15°C° 0 mm 0 m/s 620 mmHg 97%
    03:00 +15°C° 0 mm 0 m/s 620 mmHg 97%
    04:00 +14°C° 0 mm 0 m/s 620 mmHg 98%
    05:00 +15°C° 0 mm 0 m/s 621 mmHg 96%
    06:00 +16°C° 0 mm 0 m/s 621 mmHg 95%
    07:00 +16°C° 0 mm 0 m/s 622 mmHg 94%
    08:00 +18°C° 0,4 mm 0 m/s 622 mmHg 89%
    09:00 +22°C° 0,4 mm 1 m/s 623 mmHg 83%
    10:00 +23°C° 0,4 mm 1 m/s 623 mmHg 78%
    11:00 +23°C° 1 mm 1 m/s 623 mmHg 78%
    12:00 +23°C° 1 mm 1 m/s 622 mmHg 78%
    13:00 +23°C° 1 mm 1 m/s 621 mmHg 78%
    14:00 +23°C° 1,2 mm 2 m/s 621 mmHg 80%
    15:00 +23°C° 1,2 mm 2 m/s 620 mmHg 82%
    16:00 +23°C° 1,2 mm 2 m/s 620 mmHg 83%
    17:00 +21°C° 1,5 mm 2 m/s 620 mmHg 87%
    18:00 +19°C° 1,5 mm 2 m/s 620 mmHg 90%
    19:00 +18°C° 1,5 mm 2 m/s 621 mmHg 93%
    20:00 +18°C° 0,9 mm 2 m/s 621 mmHg 93%
    21:00 +18°C° 0,9 mm 2 m/s 621 mmHg 94%
    22:00 +17°C° 0,9 mm 2 m/s 622 mmHg 94%
    23:00 +17°C° 0,2 mm 2 m/s 621 mmHg 95%

    20 Décembre, Mercredi

    Heure Température Précipitation Vent Pression Humidité
    00:00 +17°C° 0,2 mm 2 m/s 621 mmHg 96%
    01:00 +16°C° 0,2 mm 2 m/s 620 mmHg 96%
    02:00 +16°C° 0,1 mm 2 m/s 620 mmHg 96%
    03:00 +16°C° 0,1 mm 2 m/s 620 mmHg 96%
    04:00 +16°C° 0,1 mm 2 m/s 620 mmHg 96%
    05:00 +16°C° 0,1 mm 2 m/s 621 mmHg 95%
    06:00 +16°C° 0,1 mm 2 m/s 621 mmHg 94%
    07:00 +16°C° 0,1 mm 2 m/s 621 mmHg 93%
    08:00 +17°C° 0,1 mm 2 m/s 622 mmHg 89%
    09:00 +18°C° 0,1 mm 2 m/s 623 mmHg 85%
    10:00 +19°C° 0,1 mm 2 m/s 623 mmHg 81%
    11:00 +20°C° 0,3 mm 2 m/s 623 mmHg 78%
    12:00 +21°C° 0,3 mm 2 m/s 622 mmHg 75%
    13:00 +22°C° 0,3 mm 3 m/s 622 mmHg 72%
    14:00 +21°C° 0,6 mm 2 m/s 622 mmHg 77%
    15:00 +21°C° 0,6 mm 2 m/s 622 mmHg 82%
    16:00 +20°C° 0,6 mm 2 m/s 621 mmHg 86%
    17:00 +20°C° 0,6 mm 1 m/s 621 mmHg 89%
    18:00 +19°C° 0,6 mm 1 m/s 622 mmHg 92%
    19:00 +18°C° 0,6 mm 1 m/s 622 mmHg 95%
    20:00 +18°C° 0,4 mm 1 m/s 622 mmHg 95%
    21:00 +18°C° 0,4 mm 1 m/s 622 mmHg 95%
    22:00 +18°C° 0,4 mm 1 m/s 623 mmHg 96%
    23:00 +16°C° 0,2 mm 1 m/s 622 mmHg 96%

    21 Décembre, Jeudi

    Heure Température Précipitation Vent Pression Humidité
    00:00 +16°C° 0,2 mm 1 m/s 622 mmHg 96%
    01:00 +16°C° 0,2 mm 2 m/s 621 mmHg 97%
    02:00 +16°C° 0,1 mm 1 m/s 621 mmHg 97%
    03:00 +16°C° 0,1 mm 1 m/s 621 mmHg 97%
    04:00 +15°C° 0,1 mm 1 m/s 621 mmHg 97%
    05:00 +16°C° 0,1 mm 1 m/s 621 mmHg 95%
    06:00 +16°C° 0,1 mm 1 m/s 622 mmHg 94%
    07:00 +18°C° 0,1 mm 1 m/s 622 mmHg 92%
    08:00 +19°C° 0 mm 2 m/s 623 mmHg 82%
    09:00 +21°C° 0 mm 2 m/s 624 mmHg 71%
    10:00 +24°C° 0 mm 3 m/s 624 mmHg 61%
    11:00 +24°C° 0,2 mm 3 m/s 624 mmHg 61%
    12:00 +25°C° 0,2 mm 3 m/s 623 mmHg 60%
    13:00 +25°C° 0,2 mm 3 m/s 623 mmHg 60%
    14:00 +25°C° 0,9 mm 3 m/s 622 mmHg 67%
    15:00 +24°C° 0,9 mm 2 m/s 622 mmHg 74%
    16:00 +23°C° 0,9 mm 2 m/s 622 mmHg 81%
    17:00 +20°C° 0,8 mm 2 m/s 622 mmHg 85%
    18:00 +19°C° 0,8 mm 2 m/s 622 mmHg 88%
    19:00 +19°C° 0,8 mm 1 m/s 622 mmHg 92%
    20:00 +18°C° 0,2 mm 1 m/s 622 mmHg 93%
    21:00 +18°C° 0,2 mm 1 m/s 622 mmHg 94%
    22:00 +16°C° 0,2 mm 1 m/s 622 mmHg 95%
    23:00 +16°C° 0,1 mm 1 m/s 622 mmHg 95%

    22 Décembre, Vendredi

    Heure Température Précipitation Vent Pression Humidité
    00:00 +16°C° 0,1 mm 1 m/s 622 mmHg 96%
    01:00 +16°C° 0,1 mm 1 m/s 622 mmHg 96%
    02:00 +15°C° 0 mm 1 m/s 621 mmHg 96%
    03:00 +15°C° 0 mm 1 m/s 621 mmHg 97%
    04:00 +15°C° 0 mm 1 m/s 621 mmHg 97%
    05:00 +15°C° 0 mm 1 m/s 621 mmHg 95%
    06:00 +16°C° 0 mm 1 m/s 622 mmHg 93%
    07:00 +18°C° 0 mm 1 m/s 623 mmHg 91%
    08:00 +20°C° 0 mm 1 m/s 623 mmHg 80%
    09:00 +21°C° 0 mm 2 m/s 624 mmHg 69%
    10:00 +24°C° 0 mm 2 m/s 624 mmHg 58%
    11:00 +25°C° 0 mm 2 m/s 624 mmHg 55%
    12:00 +26°C° 0 mm 2 m/s 623 mmHg 51%
    13:00 +26°C° 0 mm 3 m/s 623 mmHg 47%
    14:00 +26°C° 0 mm 3 m/s 622 mmHg 49%
    15:00 +26°C° 0 mm 2 m/s 622 mmHg 51%
    16:00 +26°C° 0 mm 2 m/s 621 mmHg 53%
    17:00 +24°C° 0 mm 2 m/s 621 mmHg 60%
    18:00 +21°C° 0 mm 2 m/s 621 mmHg 67%
    19:00 +19°C° 0 mm 1 m/s 620 mmHg 74%
    20:00 +19°C° 0 mm 1 m/s 621 mmHg 73%
    21:00 +18°C° 0 mm 1 m/s 621 mmHg 73%
    22:00 +16°C° 0 mm 1 m/s 621 mmHg 73%
    23:00 +16°C° 0 mm 1 m/s 621 mmHg 72%
    Voir plus